Flag for U.S.A. Weather past 2 weeks in Bridgeport, Connecticut, U.S.A.

Now
51 °F

Overcast.


Feels Like: 47 °F
Forecast: 39 / 50 °F
Wind: 12 mph from Northwest

Location: Sikorsky Memorial Airport

Current Time: Dec 17, 2014 at 4:59:28 PM

Latest Report: Dec 17, 2014 at 3:52 PM


Visibility: 10 mi

Pressure: 29.79 "Hg

Humidity: 63%

Dew point: 39 °F

Location of BridgeportLocation

Historic Weather in Bridgeport — Graph

°F

Bridgeport temperature yesterday

Maximum temperature yesterday: 45 °F (at 6:52 PM)
Minimum temperature yesterday: 32 °F (at 3:52 AM)
Average temperature yesterday: 40 °F

Past Weeks' High & Low Weather Summary

 TemperatureHumidityPressure
High53 °F (Dec 17, 12:52 PM)100% (Dec 6, 1:59 AM)30.71 "Hg (Dec 6, 1:59 AM)
Low21 °F (Dec 8, 6:52 AM)34% (Dec 7, 1:52 PM)29.50 "Hg (Dec 10, 2:52 PM)
Average38 °F74%30.09 "Hg
* Reported Dec 2 2:52 PM — Dec 17 2:52 PM, Bridgeport, Weather by CustomWeather, © 2014

Note: Actual official high and low records may vary slightly from our data, if they occured in-between our weather recording intervals... More about our weather records

Advertising

Bridgeport weather history for previous 24 hours

 ConditionsComfort  
Time TempWeatherWind HumidityBarometerVisibility
2:52 PM
Dec 17
52 °FOvercast.12 mph61%29.78 "Hg10 mi
1:52 PM53 °FOvercast.8 mph64%29.77 "Hg10 mi
12:52 PM53 °FMore clouds than sun.13 mph64%29.77 "Hg10 mi
11:52 AM51 °FPartly sunny.8 mph71%29.79 "Hg10 mi
10:52 AM50 °FSunny.6 mph77%29.81 "Hg10 mi
9:52 AM48 °FPassing clouds.9 mph83%29.81 "Hg10 mi
9:03 AM46 °FPartly sunny.9 mph86%29.81 "Hg10 mi
8:52 AM45 °FBroken clouds.6 mph90%29.81 "Hg10 mi
7:52 AM43 °FMore clouds than sun.No wind93%29.80 "Hg10 mi
6:52 AM43 °FMostly cloudy.6 mph93%29.81 "Hg10 mi
5:52 AM43 °FOvercast.5 mph93%29.80 "Hg10 mi
4:52 AM43 °FMostly cloudy.5 mph97%29.79 "Hg7 mi
3:52 AM43 °FLow clouds.5 mph97%29.80 "Hg8 mi
2:52 AM42 °FLow clouds.8 mph96%29.79 "Hg7 mi
1:52 AM42 °FLight rain. Fog.9 mph96%29.80 "Hg6 mi
12:52 AM42 °FRain. Fog.10 mph96%29.81 "Hg3 mi
11:52 PM
Dec 16
43 °FLight rain. Fog.9 mph93%29.85 "Hg4 mi
11:02 PM43 °FLight rain. Fog.3 mph97%29.89 "Hg4 mi
10:52 PM43 °FLight rain. Fog.5 mph97%29.89 "Hg4 mi
9:52 PM43 °FLight rain. Fog.5 mph93%29.91 "Hg4 mi
8:52 PM44 °FLight rain. Low clouds.No wind93%29.93 "Hg8 mi
7:52 PM44 °FLight rain. Fog.9 mph93%29.95 "Hg6 mi
6:52 PM45 °FLight rain. Overcast.9 mph90%29.97 "Hg9 mi
5:52 PM44 °FLow clouds.8 mph85%29.97 "Hg10 mi
4:52 PM43 °FOvercast.12 mph86%29.96 "Hg10 mi
Weather by CustomWeather, © 2014

See weather overviewHow to use our weather pages